Weather History for PAGY - December, 2012

Change the Weather History Date:

Thursday, December 6, 2012

  Actual Average Record
Temperature  
Mean Temperature 15 °F -  
Max Temperature 16 °F 33 °F 45 °F (2000)
Min Temperature 14 °F 25 °F -3 °F (1970)
Degree Days  
Heating Degree Days 50    
Moisture  
Dew Point 0 °F    
Average Humidity 50    
Maximum Humidity 62    
Minimum Humidity 45    
Precipitation  
Precipitation 0.00 in - - ()
Sea Level Pressure  
Sea Level Pressure 29.85 in    
Wind  
Wind Speed 25 mph (NE)    
Max Wind Speed 31 mph    
Max Gust Speed 45 mph    
Visibility 8 miles    
Events Snow    
Averages and records for this station are not official NWS values.
T = Trace of Precipitation, MM = Missing Value Source: NWS Daily Summary

Daily Weather History Graph

Daily Weather History Graph

Search for Another Location

Airport or City:

Trip Planner

Search our weather history database for the weather conditions in past years. The results will help you decide how hot, cold, wet, or windy it might be!

Date:

Astronomy

Dec. 06, 2012 Rise Set
Actual Time 8:42 AM AKST 3:02 PM AKST
Civil Twilight 7:47 AM AKST 3:57 PM AKST
Nautical Twilight 6:53 AM AKST 4:51 PM AKST
Astronomical Twilight 6:03 AM AKST 5:41 PM AKST
Moon No Moon Rise 12:06 PM AKST (12/6)
Length of Visible Light 8h 09m
Length of Day
6h 20m
Waning Gibbous, 48% of the Moon is Illuminated
Dec 6
Waning Gibbous
Dec 12
New
Dec 19
First Quarter
Dec 28
Full
Jan 4
Last Quarter

Hourly Weather History & Observations

Time (AKST) Temp. Windchill Dew Point Humidity Pressure Visibility Wind Dir Wind Speed Gust Speed Precip Events Conditions
12:53 AM 15.1 °F -4.7 °F -2.0 °F 47% 29.85 in 9.0 mi NE 27.6 mph 34.5 mph 0.00 in   Overcast
1:40 AM 15.8 °F -1.9 °F 1.4 °F 53% 29.86 in 2.5 mi NE 21.9 mph 40.3 mph 0.00 in Snow Light Snow
1:50 AM 14.0 °F -5.1 °F 3.2 °F 62% 29.87 in 1.8 mi NE 24.2 mph 35.7 mph 0.00 in Snow Light Snow
1:53 AM 14.0 °F -6.2 °F 3.0 °F 62% 29.86 in 1.8 mi NE 27.6 mph 35.7 mph 0.00 in Snow Light Snow
2:02 AM 14.0 °F -5.8 °F 3.2 °F 62% 29.86 in 2.0 mi NE 26.5 mph 33.4 mph 0.00 in Snow Light Snow
2:14 AM 14.0 °F -3.9 °F 3.2 °F 62% 29.87 in 1.8 mi NE 20.7 mph 38.0 mph 0.00 in Snow Light Snow
2:36 AM 14.0 °F -4.3 °F 3.2 °F 62% 29.87 in 3.0 mi NE 21.9 mph 36.8 mph 0.00 in Snow Light Snow
2:51 AM 15.8 °F -1.5 °F 1.4 °F 53% 29.87 in 6.0 mi NE 20.7 mph 31.1 mph 0.00 in Snow Light Snow
3:53 AM 15.1 °F -3.3 °F -2.0 °F 47% 29.85 in 10.0 mi NE 23.0 mph 34.5 mph 0.00 in   Overcast
4:53 AM 16.0 °F -2.1 °F -0.9 °F 47% 29.83 in 10.0 mi NE 23.0 mph 31.1 mph N/A   Overcast
5:53 AM 16.0 °F -1.7 °F -0.0 °F 49% 29.85 in 10.0 mi NE 21.9 mph 32.2 mph N/A   Overcast
6:53 AM 16.0 °F -2.1 °F -0.0 °F 49% 29.84 in 9.0 mi NE 23.0 mph 34.5 mph 0.00 in Snow Light Snow
7:53 AM 15.1 °F -2.5 °F -0.0 °F 51% 29.85 in 10.0 mi NE 20.7 mph 34.5 mph 0.00 in   Overcast
8:53 AM 16.0 °F -0.4 °F -0.0 °F 49% 29.85 in 10.0 mi NNE 18.4 mph 32.2 mph N/A   Overcast
9:53 AM 16.0 °F -3.8 °F -2.0 °F 45% 29.84 in 10.0 mi NE 28.8 mph 35.7 mph N/A   Overcast
10:53 AM 15.1 °F -3.7 °F -2.0 °F 47% 29.85 in 10.0 mi NE 24.2 mph 36.8 mph N/A   Overcast
11:53 AM 16.0 °F -2.8 °F -0.9 °F 47% 29.85 in 10.0 mi NE 25.3 mph 36.8 mph N/A   Overcast
12:53 PM 16.0 °F -1.3 °F -0.9 °F 47% 29.85 in 10.0 mi NE 20.7 mph 33.4 mph N/A   Overcast
1:53 PM 16.0 °F -2.1 °F -0.9 °F 47% 29.84 in 10.0 mi NE 23.0 mph 33.4 mph N/A   Overcast
2:53 PM 16.0 °F -2.5 °F -0.9 °F 47% 29.83 in 10.0 mi NE 24.2 mph 35.7 mph N/A   Overcast
3:53 PM 16.0 °F -2.5 °F -0.9 °F 47% 29.84 in 10.0 mi NE 24.2 mph 35.7 mph N/A   Overcast
4:53 PM 15.1 °F -4.7 °F -0.9 °F 49% 29.83 in 10.0 mi NE 27.6 mph 35.7 mph N/A   Partly Cloudy
5:53 PM 15.1 °F -4.4 °F -2.0 °F 47% 29.83 in 10.0 mi NE 26.5 mph 38.0 mph N/A   Clear
6:53 PM 15.1 °F -5.7 °F -2.0 °F 47% 29.82 in 10.0 mi NE 31.1 mph 43.7 mph 0.00 in   Clear
7:53 PM 15.1 °F -5.0 °F -0.9 °F 49% 29.84 in 10.0 mi NE 28.8 mph 40.3 mph 0.00 in   Clear
8:53 PM 14.0 °F -6.8 °F -2.9 °F 47% 29.83 in 10.0 mi NE 29.9 mph 41.4 mph 0.00 in   Clear
9:53 PM 14.0 °F -5.8 °F -2.9 °F 47% 29.83 in 10.0 mi NE 26.5 mph 44.9 mph N/A   Clear
10:53 PM 14.0 °F -7.1 °F -2.9 °F 47% 29.84 in 9.0 mi NE 31.1 mph 44.9 mph 0.00 in Snow Light Snow
11:53 PM 14.0 °F -6.5 °F -2.9 °F 47% 29.83 in 9.0 mi NE 28.8 mph 44.9 mph 0.00 in Snow Light Snow